Find Starlink 33916

NORAD ID: 63792 Int'l Des: 2025-091 Owner: SPXS Country: US Constellation: starlink operational
LEOCIRCULAR

現在のビュー

3D地球を読み込み中...

About Starlink 33916

Starlink 33916 (NORAD 63792) is a starlink constellation satellite (v2 mini) launched May 2, 2025 by SPXS of US. It operates in LEO, CIRCULAR orbit with a mass of 575.00 kg.

Starlink 33916について

説明を読み込み中...

次回通過

Passes for default location (London). Set your location on the main map for personalized predictions.

高度履歴

Loading altitude history...

軌道要素

1 63792U 25091T 26170.13413054 .00013041 00000-0 48231-3 0 9991
2 63792 42.9994 199.8962 0001284 267.3505 92.7199 15.27599079 64419
Epoch: Jun 19, 2026 • Age: 28 hours

現在のステータス

高度 483.5 km
速度 7.63 km/s
衛星直下点 26.97°N, 157.15°W
打ち上げ日 May 2, 2025
運用期間 1.1 years
タイプ internet

技術仕様

分類 Payload
質量 575.00 kg
乾燥質量 530.00 kg
総質量 575.00 kg
長さ 0.30 m
直径 4.10 m
スパン 29.00 m
形状 Box + pan
製造者 SPXS
バスタイプ Starlink V2MO
フェーズステータス In Orbit
所有者/国 SPXS/US

Most Searched